Location: Limerick
(52.6650°N, 8.6230°W)
Time: 02:27:03
(UTC+01:00)

ISS - Pass Details

Date: 20 May 2017
Orbit: 402 x 407 km, 51.6° (Epoch: 21 September)

Event Time Altitude Azimuth Distance (km) Brightness Sun altitude
Exits shadow 01:23:01 21° 107° (ESE) 992 -2.1 -17.3°
Drops below altitude 10° 01:24:30 10° 89° (E) 1,489 -1.0 -17.3°
Enters shadow 02:29:47 -51° 258° (WSW) 10,415 3.3 -16.2°
Maximum altitude 02:57:50 71° 173° (S) 442 -3.9 -14.9°
